EW6750 Weather Reports


time (UTC)temp
F
wind
direction
speed
knots
gust
knots
rain 1hr
in
rain 24hr
in
rain mn
in
humidity
%
barometer
mb
20260506002525 47 353 0.9 2.6 0.00 0.00 0.00 69 1015.9
20260506001521 47 19 1.7 3.5 0.00 0.00 0.00 70 1015.9
20260506000518 47 8 1.7 3.5 0.00 0.00 0.00 70 1015.8
20260505235616 47 26 0.9 3.5 0.00 0.00 0.00 70 1015.9
20260505234613 47 356 1.7 3.5 0.00 0.00 0.00 70 1015.8
20260505233608 47 73 1.7 3.5 0.00 0.00 0.00 70 1015.9
20260505232626 47 125 1.7 3.5 0.00 0.00 0.00 70 1015.9
20260505231602 47 31 1.7 3.5 0.00 0.00 0.00 71 1015.9
20260505230557 47 0 0.9 1.7 0.00 0.00 0.00 72 1015.9
20260505225554 48 74 0.9 3.5 0.00 0.00 0.00 72 1015.9
20260505224550 48 271 0.9 2.6 0.00 0.00 0.00 71 1016.0
20260505223546 48 20 0.9 3.5 0.00 0.00 0.00 71 1016.0
20260505222543 48 81 0.9 3.5 0.00 0.00 0.00 71 1016.1
20260505221600 48 91 1.7 5.2 0.00 0.00 0.00 71 1016.0
20260505220537 48 122 2.6 3.5 0.00 0.00 0.00 71 1016.0
20260505215535 48 70 0.9 1.7 0.00 0.00 0.00 71 1015.9
20260505214530 48 339 1.7 3.5 0.00 0.00 0.00 71 1015.7
20260505213547 48 0 1.7 3.5 0.00 0.00 0.00 71 1015.7
20260505212649 49 97 1.7 3.5 0.00 0.00 0.00 71 1015.7
20260505211521 49 344 2.6 4.3 0.00 0.00 0.00 71 1015.7
20260505210516 49 203 1.7 3.5 0.00 0.00 0.00 71 1015.7
20260505205612 49 6 2.6 3.5 0.00 0.00 0.00 71 1015.7
20260505204609 49 343 2.6 7.0 0.00 0.00 0.00 71 1015.7
20260505203628 49 19 2.6 3.5 0.00 0.00 0.00 71 1015.7
20260505202604 49 45 1.7 2.6 0.00 0.00 0.00 71 1015.6
20260505201600 49 58 1.7 3.5 0.00 0.00 0.00 72 1015.5
20260505200555 50 360 2.6 6.1 0.00 0.00 0.00 72 1015.4
20260505195553 50 339 1.7 3.5 0.00 0.00 0.00 72 1015.4
20260505194549 50 59 1.7 3.5 0.00 0.00 0.00 72 1015.2
20260505193546 50 9 1.7 3.5 0.00 0.00 0.00 72 1015.0
20260505192541 51 37 1.7 3.5 0.00 0.00 0.00 71 1015.0
20260505191538 51 0 1.7 3.5 0.00 0.00 0.00 71 1014.9
20260505190554 51 90 1.7 2.6 0.00 0.00 0.00 70 1014.9
20260505185532 52 60 0.9 2.6 0.00 0.00 0.00 70 1014.9
20260505184547 52 104 0.9 2.6 0.00 0.00 0.00 69 1014.8
20260505183523 52 86 1.7 4.3 0.00 0.00 0.00 70 1014.7
20260505182541 53 333 1.7 3.5 0.00 0.00 0.00 70 1014.7
20260505181556 53 90 1.7 3.5 0.00 0.00 0.00 70 1014.6
20260505180633 53 60 1.7 3.5 0.00 0.00 0.00 70 1014.6
20260505175611 54 54 2.6 5.2 0.00 0.00 0.00 70 1014.6
20260505174606 54 27 1.7 4.3 0.00 0.00 0.00 70 1014.6
20260505173603 54 264 3.5 7.0 0.00 0.00 0.00 70 1014.4
20260505172601 54 53 0.9 3.5 0.00 0.00 0.00 70 1014.6
20260505171557 54 120 0.9 4.3 0.00 0.00 0.00 70 1014.6
20260505170552 54 90 1.7 2.6 0.00 0.00 0.00 69 1014.7
20260505165550 54 63 1.7 4.3 0.00 0.00 0.00 70 1014.6
20260505164547 54 5 1.7 3.5 0.00 0.00 0.00 67 1014.7
20260505163542 55 0 2.6 3.5 0.00 0.00 0.00 63 1014.6
20260505162539 56 153 0.9 4.3 0.00 0.00 0.00 60 1014.5
20260505161535 56 1 0.9 2.6 0.00 0.00 0.00 60 1014.3
20260505160531 56 9 0.9 3.5 0.00 0.00 0.00 60 1014.3
20260505152556 58 90 0.0 1.7 0.00 0.00 0.00 52 1014.5
20260505151615 58 0.0 0.0 0.00 0.00 0.00 51 1014.4
20260505150631 58 0.0 0.9 0.00 0.00 0.00 51 1014.5
20260505140551 58 104 0.9 1.7 0.00 0.00 0.00 51 1014.6
20260505124522 58 125 0.0 2.6 0.00 0.00 0.00 60 1014.5
20260505123517 56 82 0.9 1.7 0.00 0.00 0.00 61 1014.8
20260505122614 55 110 0.9 2.6 0.00 0.00 0.00 61 1014.8
20260505121611 55 2 0.0 1.7 0.00 0.00 0.00 61 1014.6
20260505120607 55 291 0.9 2.6 0.00 0.00 0.00 61 1014.8
20260505115604 55 126 1.7 2.6 0.00 0.00 0.00 59 1014.8
20260505114623 56 49 0.9 2.6 0.00 0.00 0.00 56 1014.8
20260505113557 56 87 1.7 3.5 0.00 0.00 0.00 54 1014.8
20260505112554 56 147 0.9 2.6 0.00 0.00 0.00 55 1014.9
20260505111550 56 17 0.9 2.6 0.00 0.00 0.00 54 1015.0
20260505110548 56 135 1.7 1.7 0.00 0.00 0.00 52 1014.9
20260505101529 56 120 0.9 2.6 0.00 0.00 0.00 54 1015.0
20260505100527 56 121 0.9 3.5 0.00 0.00 0.00 55 1015.0
20260505095522 55 88 0.9 1.7 0.00 0.00 0.00 56 1015.1
20260505094519 54 93 0.9 1.7 0.00 0.00 0.00 61 1015.1
20260505093617 54 102 1.7 2.6 0.00 0.00 0.00 61 1015.1
20260505092716 54 213 1.7 3.5 0.00 0.00 0.00 60 1015.2
20260505091609 55 146 1.7 4.3 0.00 0.00 0.00 56 1015.1
20260505090624 54 203 1.7 2.6 0.00 0.00 0.00 63 1015.1
20260505085621 53 90 0.9 2.6 0.00 0.00 0.00 65 1015.1
20260505084557 53 113 0.9 2.6 0.00 0.00 0.00 65 1015.3
20260505083554 53 93 1.7 4.3 0.00 0.00 0.00 74 1015.3
20260505082552 52 147 1.7 3.5 0.00 0.00 0.00 89 1015.4
20260505081548 51 85 0.9 3.5 0.00 0.00 0.00 96 1015.3
20260505080543 49 135 0.9 1.7 0.00 0.00 0.00 97 1015.4
20260505075540 48 0.0 0.9 0.00 0.00 0.00 97 1015.5
20260505074558 47 45 0.0 2.6 0.00 0.00 0.00 96 1015.4
20260505073535 47 0.0 0.0 0.00 0.00 0.00 96 1015.5
20260505072530 46 0.0 0.9 0.00 0.00 0.00 96 1015.4
20260505071548 46 45 0.0 1.7 0.00 0.00 0.00 95 1015.5
20260505070524 45 90 0.9 1.7 0.00 0.00 0.00 99 1015.6
20260505065601 44 0.0 0.0 0.00 0.00 0.00 99 1015.5
20260505064518 44 0.0 0.0 0.00 0.00 0.00 99 1015.6
20260505063634 43 0.0 0.9 0.00 0.00 0.00 98 1015.6
20260505062632 43 0.0 0.0 0.00 0.00 0.00 98 1015.7
20260505061607 42 0.0 0.0 0.00 0.00 0.00 97 1015.5
20260505060602 42 0.0 0.0 0.00 0.00 0.00 97 1015.7
20260505055558 41 0 0.0 1.7 0.00 0.00 0.00 96 1015.5
20260505054556 41 0.0 0.0 0.00 0.00 0.00 96 1015.5
20260505053634 40 0.0 0.0 0.00 0.00 0.00 95 1015.4
20260505052547 40 0.0 0.0 0.00 0.00 0.00 95 1015.4
20260505051545 40 0.0 0.0 0.00 0.00 0.00 95 1015.3
20260505050540 40 0.0 0.0 0.00 0.00 0.00 95 1015.2
20260505041605 41 0.0 0.0 0.00 0.00 0.00 94 1015.0
20260505040541 41 0.0 0.0 0.00 0.00 0.00 94 1014.9
20260505035516 41 0.0 0.0 0.00 0.00 0.00 93 1014.9
20260505034614 41 0.0 0.0 0.00 0.00 0.00 93 1014.9
20260505033611 41 0.0 0.0 0.00 0.00 0.00 93 1014.9
20260505032606 41 0.0 0.0 0.00 0.00 0.00 93 1015.0
20260505031602 42 0.0 0.0 0.00 0.00 0.00 93 1015.1
20260505030558 42 0.0 0.0 0.00 0.00 0.00 92 1015.1
20260505025555 42 0.0 0.0 0.00 0.00 0.00 92 1015.1
20260505024551 42 0.0 0.0 0.00 0.00 0.00 92 1015.3
20260505023549 42 0.0 0.0 0.00 0.00 0.00 92 1015.2
20260505022546 42 0.0 0.0 0.00 0.00 0.00 91 1015.2
20260505021541 43 0.0 0.0 0.00 0.00 0.00 91 1015.2
20260505020537 43 0.0 0.0 0.00 0.00 0.00 91 1015.2
20260505015534 42 0.0 0.0 0.00 0.00 0.00 91 1015.3
20260505014530 43 0.0 0.0 0.00 0.00 0.00 90 1015.3
20260505013527 43 0.0 0.0 0.00 0.00 0.00 90 1015.5
20260505012525 43 0.0 0.0 0.00 0.00 0.00 90 1015.6
20260505011521 44 0.0 0.0 0.00 0.00 0.00 90 1015.7
20260505010539 44 0.0 0.0 0.00 0.00 0.00 89 1015.7
20260505005613 44 0.0 0.0 0.00 0.00 0.00 88 1015.6
20260505004610 44 0.0 0.0 0.00 0.00 0.00 88 1015.8
20260505003607 44 0.0 0.0 0.00 0.00 0.00 87 1015.8